• Em Portugal
  • Lista de países
  • Para 7 dias
  • Temperatura da água
  • Mapas de satélite
  • Mapa do tempo
  • Widgets de tempo
  • user-avatar
    Iniciar Sessão

    Previsão horária em Abrantes

    Hoje, 19 Julho, Quinta-feira

    Tempo Temperatura Precipitação Vento Pressão Humidade
    00:00 +17°C° 0 mm 2 m/s 755 mmHg 94%
    01:00 +17°C° 0 mm 2 m/s 754 mmHg 95%
    02:00 +16°C° 0 mm 2 m/s 754 mmHg 96%
    03:00 +16°C° 0 mm 2 m/s 754 mmHg 96%
    04:00 +16°C° 0 mm 1 m/s 754 mmHg 96%
    05:00 +16°C° 0 mm 1 m/s 755 mmHg 96%
    06:00 +19°C° 0 mm 2 m/s 755 mmHg 85%
    07:00 +21°C° 0 mm 2 m/s 755 mmHg 74%
    08:00 +24°C° 0 mm 3 m/s 755 mmHg 63%
    09:00 +26°C° 0 mm 3 m/s 755 mmHg 56%
    10:00 +28°C° 0 mm 3 m/s 755 mmHg 50%
    11:00 +29°C° 0 mm 4 m/s 755 mmHg 43%
    12:00 +30°C° 0 mm 4 m/s 755 mmHg 43%
    13:00 +30°C° 0 mm 4 m/s 754 mmHg 42%
    14:00 +32°C° 0 mm 5 m/s 754 mmHg 42%
    15:00 +29°C° 0 mm 5 m/s 754 mmHg 46%
    16:00 +28°C° 0 mm 5 m/s 754 mmHg 51%
    17:00 +27°C° 0 mm 5 m/s 754 mmHg 56%
    18:00 +25°C° 0 mm 4 m/s 754 mmHg 65%
    19:00 +23°C° 0 mm 4 m/s 754 mmHg 74%
    20:00 +21°C° 0 mm 3 m/s 755 mmHg 83%
    21:00 +20°C° 0 mm 3 m/s 755 mmHg 86%
    22:00 +20°C° 0 mm 3 m/s 755 mmHg 89%
    23:00 +19°C° 0 mm 2 m/s 755 mmHg 92%

    Amanhã, 20 Julho, Sexta-feira

    Tempo Temperatura Precipitação Vento Pressão Humidade
    00:00 +19°C° 0 mm 2 m/s 755 mmHg 93%
    01:00 +19°C° 0 mm 2 m/s 755 mmHg 93%
    02:00 +18°C° 0 mm 2 m/s 754 mmHg 94%
    03:00 +19°C° 0 mm 2 m/s 754 mmHg 93%
    04:00 +19°C° 0 mm 2 m/s 754 mmHg 93%
    05:00 +19°C° 0 mm 2 m/s 755 mmHg 92%
    06:00 +20°C° 0 mm 3 m/s 755 mmHg 83%
    07:00 +22°C° 0 mm 3 m/s 755 mmHg 74%
    08:00 +25°C° 0 mm 3 m/s 755 mmHg 65%
    09:00 +27°C° 0 mm 3 m/s 755 mmHg 57%
    10:00 +29°C° 0 mm 4 m/s 755 mmHg 49%
    11:00 +32°C° 0 mm 4 m/s 755 mmHg 40%
    12:00 +32°C° 0 mm 5 m/s 754 mmHg 39%
    13:00 +32°C° 0 mm 5 m/s 754 mmHg 38%
    14:00 +32°C° 0 mm 6 m/s 754 mmHg 37%
    15:00 +30°C° 0 mm 6 m/s 754 mmHg 41%
    16:00 +29°C° 0 mm 6 m/s 754 mmHg 45%
    17:00 +28°C° 0 mm 6 m/s 754 mmHg 50%
    18:00 +26°C° 0 mm 5 m/s 754 mmHg 57%
    19:00 +23°C° 0 mm 4 m/s 754 mmHg 64%
    20:00 +21°C° 0 mm 4 m/s 755 mmHg 71%
    21:00 +20°C° 0 mm 3 m/s 755 mmHg 74%
    22:00 +19°C° 0 mm 3 m/s 755 mmHg 77%
    23:00 +19°C° 0 mm 3 m/s 755 mmHg 80%

    Depois de amanhã, 21 Julho, Sábado

    Tempo Temperatura Precipitação Vento Pressão Humidade
    00:00 +18°C° 0 mm 3 m/s 754 mmHg 83%
    01:00 +18°C° 0 mm 2 m/s 754 mmHg 85%
    02:00 +18°C° 0 mm 2 m/s 754 mmHg 87%
    03:00 +18°C° 0 mm 2 m/s 754 mmHg 88%
    04:00 +17°C° 0 mm 2 m/s 754 mmHg 89%
    05:00 +17°C° 0 mm 2 m/s 754 mmHg 90%
    06:00 +20°C° 0 mm 2 m/s 754 mmHg 78%
    07:00 +22°C° 0 mm 3 m/s 754 mmHg 66%
    08:00 +26°C° 0 mm 3 m/s 754 mmHg 55%
    09:00 +28°C° 0 mm 3 m/s 754 mmHg 47%
    10:00 +30°C° 0 mm 3 m/s 754 mmHg 39%
    11:00 +33°C° 0 mm 3 m/s 754 mmHg 31%
    12:00 +34°C° 0 mm 3 m/s 754 mmHg 30%
    13:00 +34°C° 0 mm 4 m/s 754 mmHg 29%
    14:00 +34°C° 0 mm 4 m/s 753 mmHg 28%
    15:00 +33°C° 0 mm 5 m/s 753 mmHg 32%
    16:00 +30°C° 0 mm 5 m/s 753 mmHg 36%
    17:00 +29°C° 0 mm 5 m/s 753 mmHg 40%
    18:00 +27°C° 0 mm 5 m/s 753 mmHg 49%
    19:00 +23°C° 0 mm 4 m/s 753 mmHg 58%
    20:00 +21°C° 0 mm 3 m/s 754 mmHg 67%
    21:00 +20°C° 0 mm 3 m/s 754 mmHg 72%
    22:00 +20°C° 0 mm 3 m/s 754 mmHg 77%
    23:00 +19°C° 0 mm 2 m/s 754 mmHg 82%

    22 Julho, Domingo

    Tempo Temperatura Precipitação Vento Pressão Humidade
    00:00 +19°C° 0 mm 2 m/s 753 mmHg 83%
    01:00 +19°C° 0 mm 2 m/s 753 mmHg 85%
    02:00 +18°C° 0 mm 2 m/s 753 mmHg 87%
    03:00 +18°C° 0 mm 2 m/s 753 mmHg 87%
    04:00 +18°C° 0 mm 2 m/s 753 mmHg 86%
    05:00 +19°C° 0 mm 1 m/s 753 mmHg 86%
    06:00 +22°C° 0 mm 1 m/s 753 mmHg 72%
    07:00 +25°C° 0 mm 1 m/s 753 mmHg 58%
    08:00 +28°C° 0 mm 2 m/s 753 mmHg 44%
    09:00 +31°C° 0 mm 1 m/s 753 mmHg 38%
    10:00 +34°C° 0 mm 1 m/s 753 mmHg 32%
    11:00 +36°C° 0 mm 1 m/s 753 mmHg 25%
    12:00 +37°C° 0 mm 1 m/s 753 mmHg 25%
    13:00 +38°C° 0 mm 2 m/s 752 mmHg 24%
    14:00 +38°C° 0 mm 2 m/s 752 mmHg 24%
    15:00 +37°C° 0 mm 3 m/s 752 mmHg 27%
    16:00 +35°C° 0 mm 3 m/s 752 mmHg 31%
    17:00 +34°C° 0 mm 4 m/s 752 mmHg 35%
    18:00 +30°C° 0 mm 3 m/s 752 mmHg 44%
    19:00 +27°C° 0 mm 3 m/s 753 mmHg 54%
    20:00 +25°C° 0 mm 2 m/s 753 mmHg 63%
    21:00 +24°C° 0 mm 2 m/s 753 mmHg 67%
    22:00 +23°C° 0 mm 2 m/s 753 mmHg 71%
    23:00 +22°C° 0 mm 1 m/s 753 mmHg 75%

    23 Julho, Segunda-feira

    Tempo Temperatura Precipitação Vento Pressão Humidade
    00:00 +22°C° 0 mm 1 m/s 753 mmHg 76%
    01:00 +21°C° 0 mm 1 m/s 752 mmHg 78%
    02:00 +21°C° 0 mm 1 m/s 752 mmHg 80%
    03:00 +20°C° 0 mm 1 m/s 752 mmHg 82%
    04:00 +20°C° 0 mm 1 m/s 752 mmHg 83%
    05:00 +20°C° 0 mm 1 m/s 753 mmHg 85%
    06:00 +23°C° 0 mm 1 m/s 753 mmHg 74%
    07:00 +25°C° 0 mm 1 m/s 753 mmHg 63%
    08:00 +28°C° 0 mm 1 m/s 753 mmHg 52%
    09:00 +30°C° 0 mm 2 m/s 753 mmHg 44%
    10:00 +32°C° 0 mm 2 m/s 753 mmHg 37%
    11:00 +35°C° 0 mm 3 m/s 753 mmHg 30%
    12:00 +36°C° 0 mm 3 m/s 753 mmHg 29%
    13:00 +36°C° 0 mm 3 m/s 752 mmHg 28%
    14:00 +37°C° 0 mm 4 m/s 752 mmHg 27%
    15:00 +35°C° 0 mm 4 m/s 752 mmHg 32%
    16:00 +34°C° 0 mm 4 m/s 752 mmHg 37%
    17:00 +32°C° 0 mm 4 m/s 752 mmHg 42%
    18:00 +29°C° 0 mm 3 m/s 752 mmHg 54%
    19:00 +26°C° 0 mm 3 m/s 753 mmHg 66%
    20:00 +23°C° 0 mm 2 m/s 753 mmHg 77%
    21:00 +21°C° 0 mm 2 m/s 753 mmHg 82%
    22:00 +20°C° 0 mm 2 m/s 753 mmHg 87%
    23:00 +20°C° 0 mm 1 m/s 753 mmHg 91%

    24 Julho, Terça-feira

    Tempo Temperatura Precipitação Vento Pressão Humidade
    00:00 +20°C° 0 mm 1 m/s 753 mmHg 92%
    01:00 +20°C° 0 mm 1 m/s 753 mmHg 93%
    02:00 +19°C° 0 mm 1 m/s 753 mmHg 93%
    03:00 +19°C° 0 mm 1 m/s 753 mmHg 93%
    04:00 +19°C° 0 mm 1 m/s 753 mmHg 92%
    05:00 +19°C° 0 mm 1 m/s 753 mmHg 91%
    06:00 +21°C° 0 mm 1 m/s 753 mmHg 82%
    07:00 +23°C° 0 mm 1 m/s 753 mmHg 73%
    08:00 +25°C° 0 mm 1 m/s 753 mmHg 64%
    09:00 +27°C° 0 mm 2 m/s 753 mmHg 54%
    10:00 +29°C° 0 mm 2 m/s 753 mmHg 45%
    11:00 +32°C° 0 mm 2 m/s 753 mmHg 36%
    12:00 +34°C° 0 mm 2 m/s 753 mmHg 34%
    13:00 +34°C° 0 mm 3 m/s 753 mmHg 32%
    14:00 +35°C° 0 mm 3 m/s 752 mmHg 30%
    15:00 +34°C° 0 mm 3 m/s 752 mmHg 34%
    16:00 +33°C° 0 mm 3 m/s 752 mmHg 38%
    17:00 +32°C° 0 mm 4 m/s 752 mmHg 43%
    18:00 +29°C° 0 mm 3 m/s 752 mmHg 54%
    19:00 +26°C° 0 mm 3 m/s 753 mmHg 66%
    20:00 +23°C° 0 mm 2 m/s 753 mmHg 78%
    21:00 +23°C° 0 mm 2 m/s 753 mmHg 82%
    22:00 +22°C° 0 mm 1 m/s 753 mmHg 86%
    23:00 +21°C° 0 mm 1 m/s 753 mmHg 90%
    Mostrar mais